| time (UTC) | temp F | wind direction | speed MPH | gust MPH | rain 1hr in | rain 24hr in | rain mn in | humidity % | barometer mb |
| 20260506163500 | 0 | 313 | 1.0 | 4.0 | 0.00 | 0.88 | 0.09 | 1013.7 | |
| 20260506163002 | 0 | 326 | 1.0 | 5.0 | 0.00 | 0.88 | 0.09 | 1013.8 | |
| 20260506162502 | 0 | 328 | 1.0 | 4.0 | 0.00 | 0.88 | 0.09 | 1013.9 | |
| 20260506162002 | 0 | 338 | 0.0 | 3.0 | 0.00 | 0.88 | 0.09 | 1013.7 | |
| 20260506161500 | 0 | 355 | 1.0 | 2.0 | 0.00 | 0.88 | 0.09 | 1013.7 | |
| 20260506161002 | 0 | 20 | 0.0 | 3.0 | 0.00 | 0.88 | 0.09 | 1013.6 | |
| 20260506160500 | 0 | 24 | 1.0 | 4.0 | 0.00 | 0.88 | 0.09 | 1013.8 | |
| 20260506160005 | 0 | 286 | 2.0 | 4.0 | 0.00 | 0.88 | 0.09 | 1013.9 | |
| 20260506155500 | 0 | 295 | 1.0 | 4.0 | 0.00 | 0.90 | 0.09 | 1013.8 | |
| 20260506155001 | 0 | 287 | 2.0 | 4.0 | 0.00 | 0.90 | 0.09 | 1013.9 | |
| 20260506154501 | 0 | 348 | 2.0 | 3.0 | 0.00 | 0.90 | 0.09 | 1013.9 | |
| 20260506154000 | 0 | 240 | 0.0 | 5.0 | 0.00 | 0.90 | 0.09 | 1013.8 | |
| 20260506153501 | 0 | 290 | 1.0 | 5.0 | 0.00 | 0.90 | 0.09 | 1013.8 | |
| 20260506153001 | 0 | 297 | 2.0 | 5.0 | 0.00 | 0.90 | 0.09 | 1013.7 | |
| 20260506152503 | 0 | 240 | 2.0 | 6.0 | 0.00 | 0.90 | 0.09 | 1013.7 | |
| 20260506152001 | 0 | 15 | 2.0 | 6.0 | 0.00 | 0.90 | 0.09 | 1013.5 | |
| 20260506151500 | 0 | 57 | 2.0 | 5.0 | 0.00 | 0.90 | 0.09 | 1013.6 | |
| 20260506151003 | 0 | 39 | 3.0 | 6.0 | 0.00 | 0.90 | 0.09 | 1013.7 | |
| 20260506150005 | 0 | 284 | 1.0 | 5.0 | 0.00 | 0.90 | 0.09 | 1013.8 | |
| 20260506145500 | 0 | 321 | 3.0 | 5.0 | 0.00 | 0.96 | 0.09 | 1013.7 | |
| 20260506145002 | 0 | 28 | 2.0 | 5.0 | 0.00 | 0.96 | 0.09 | 1013.6 | |
| 20260506144001 | 0 | 37 | 3.0 | 6.0 | 0.00 | 0.96 | 0.09 | 1013.7 | |
| 20260506143500 | 0 | 312 | 3.0 | 6.0 | 0.00 | 0.96 | 0.09 | 1013.6 | |
| 20260506142501 | 0 | 274 | 3.0 | 6.0 | 0.00 | 0.96 | 0.09 | 1013.4 | |
| 20260506142001 | 0 | 57 | 1.0 | 5.0 | 0.00 | 0.96 | 0.09 | 1013.3 | |
| 20260506141000 | 0 | 314 | 2.0 | 6.0 | 0.00 | 0.96 | 0.09 | 1013.3 | |
| 20260506140501 | 0 | 285 | 3.0 | 6.0 | 0.00 | 0.96 | 0.09 | 1013.2 | |
| 20260506140004 | 0 | 34 | 2.0 | 5.0 | 0.00 | 0.96 | 0.09 | 1013.3 | |
| 20260506135502 | 0 | 27 | 2.0 | 4.0 | 0.00 | 0.97 | 0.09 | 1013.4 | |
| 20260506135000 | 0 | 280 | 1.0 | 7.0 | 0.00 | 0.97 | 0.09 | 1013.3 | |
| 20260506134500 | 0 | 293 | 4.0 | 7.0 | 0.00 | 0.97 | 0.09 | 1013.1 | |
| 20260506134001 | 0 | 285 | 3.0 | 5.0 | 0.00 | 0.97 | 0.09 | 1012.8 | |
| 20260506133501 | 0 | 61 | 2.0 | 5.0 | 0.00 | 0.97 | 0.09 | 1012.7 | |
| 20260506133000 | 0 | 283 | 2.0 | 5.0 | 0.00 | 0.97 | 0.09 | 1012.7 | |
| 20260506132501 | 0 | 287 | 2.0 | 5.0 | 0.00 | 0.97 | 0.09 | 1012.9 | |
| 20260506132000 | 0 | 304 | 4.0 | 6.0 | 0.00 | 0.97 | 0.09 | 1013.1 | |
| 20260506131502 | 0 | 284 | 3.0 | 6.0 | 0.00 | 0.97 | 0.09 | 1013.1 | |
| 20260506131000 | 0 | 292 | 1.0 | 5.0 | 0.00 | 0.97 | 0.09 | 1013.0 | |
| 20260506130004 | 0 | 285 | 2.0 | 6.0 | 0.00 | 0.97 | 0.09 | 1012.7 | |
| 20260506125501 | 0 | 297 | 3.0 | 5.0 | 0.00 | 0.97 | 0.09 | 1012.7 | |
| 20260506125001 | 0 | 293 | 2.0 | 5.0 | 0.00 | 0.97 | 0.09 | 1012.6 | |
| 20260506124500 | 0 | 280 | 3.0 | 5.0 | 0.00 | 0.97 | 0.09 | 1012.6 | |
| 20260506124001 | 0 | 286 | 2.0 | 5.0 | 0.00 | 0.97 | 0.09 | 1012.6 | |
| 20260506123501 | 0 | 288 | 3.0 | 4.0 | 0.00 | 0.97 | 0.09 | 1012.5 | |
| 20260506123002 | 0 | 298 | 3.0 | 4.0 | 0.00 | 0.97 | 0.09 | 1012.3 | |
| 20260506122502 | 0 | 299 | 2.0 | 4.0 | 0.00 | 0.97 | 0.09 | 1012.4 | |
| 20260506122000 | 0 | 287 | 2.0 | 4.0 | 0.00 | 0.97 | 0.09 | 1012.4 | |
| 20260506121001 | 0 | 295 | 2.0 | 3.0 | 0.00 | 0.97 | 0.09 | 1012.1 | |
| 20260506120500 | 0 | 281 | 2.0 | 3.0 | 0.00 | 0.97 | 0.09 | 1011.8 | |
| 20260506120004 | 0 | 293 | 1.0 | 3.0 | 0.00 | 0.97 | 0.09 | 1011.9 | |
| 20260506115501 | 0 | 284 | 0.0 | 2.0 | 0.00 | 0.97 | 0.09 | 1011.7 | |
| 20260506115000 | 0 | 284 | 1.0 | 2.0 | 0.00 | 0.97 | 0.09 | 1011.7 | |
| 20260506114501 | 0 | 284 | 0.0 | 2.0 | 0.00 | 0.97 | 0.09 | 1011.8 | |
| 20260506114002 | 0 | 268 | 1.0 | 2.0 | 0.00 | 0.97 | 0.09 | 1011.9 | |
| 20260506113500 | 0 | 274 | 0.0 | 1.0 | 0.00 | 0.97 | 0.09 | 1012.0 | |
| 20260506113001 | 0 | 287 | 0.0 | 1.0 | 0.00 | 0.97 | 0.09 | 1011.8 | |
| 20260506112000 | 0 | 260 | 0.0 | 0.0 | 0.00 | 0.97 | 0.09 | 1011.5 | |
| 20260506111500 | 0 | 259 | 0.0 | 0.0 | 0.00 | 0.97 | 0.09 | 1011.3 | |
| 20260506111000 | 0 | 259 | 0.0 | 0.0 | 0.00 | 0.97 | 0.09 | 1011.3 | |
| 20260506110502 | 0 | 259 | 0.0 | 0.0 | 0.00 | 0.97 | 0.09 | 1011.2 | |
| 20260506105000 | 0 | 259 | 0.0 | 0.0 | 0.00 | 0.97 | 0.09 | 1010.6 | |
| 20260506104501 | 0 | 259 | 0.0 | 2.0 | 0.00 | 0.97 | 0.09 | 1010.7 | |
| 20260506104000 | 0 | 275 | 0.0 | 2.0 | 0.00 | 0.97 | 0.09 | 1010.8 | |
| 20260506103500 | 0 | 236 | 0.0 | 1.0 | 0.00 | 0.97 | 0.09 | 1010.8 | |
| 20260506103000 | 0 | 253 | 0.0 | 2.0 | 0.00 | 0.97 | 0.09 | 1010.8 | |
| 20260506102504 | 0 | 228 | 1.0 | 2.0 | 0.00 | 0.97 | 0.09 | 1010.9 | |
| 20260506102000 | 0 | 210 | 1.0 | 2.0 | 0.00 | 0.97 | 0.09 | 1010.6 | |
| 20260506101500 | 0 | 209 | 0.0 | 1.0 | 0.00 | 0.97 | 0.09 | 1010.5 | |
| 20260506101000 | 0 | 210 | 0.0 | 1.0 | 0.00 | 0.97 | 0.09 | 1010.5 | |
| 20260506100501 | 0 | 219 | 0.0 | 3.0 | 0.00 | 0.97 | 0.09 | 1010.8 | |
| 20260506100004 | 0 | 262 | 2.0 | 3.0 | 0.00 | 0.97 | 0.09 | 1010.8 | |
| 20260506095500 | 0 | 247 | 1.0 | 1.0 | 0.00 | 0.97 | 0.09 | 1010.5 | |
| 20260506095000 | 0 | 261 | 0.0 | 1.0 | 0.00 | 0.97 | 0.09 | 1010.4 | |
| 20260506094500 | 0 | 261 | 0.0 | 1.0 | 0.00 | 0.97 | 0.09 | 1010.5 | |
| 20260506094001 | 0 | 231 | 0.0 | 1.0 | 0.00 | 0.97 | 0.09 | 1010.5 | |
| 20260506093500 | 0 | 167 | 0.0 | 1.0 | 0.00 | 0.97 | 0.09 | 1010.4 | |
| 20260506093000 | 0 | 158 | 0.0 | 1.0 | 0.00 | 0.97 | 0.09 | 1010.3 | |
| 20260506091500 | 0 | 205 | 0.0 | 0.0 | 0.00 | 0.97 | 0.09 | 1009.9 | |
| 20260506091000 | 0 | 205 | 0.0 | 1.0 | 0.00 | 0.97 | 0.09 | 1010.0 | |
| 20260506090502 | 0 | 205 | 0.0 | 1.0 | 0.00 | 0.97 | 0.09 | 1010.1 | |
| 20260506090006 | 0 | 218 | 0.0 | 1.0 | 0.00 | 0.97 | 0.09 | 1010.0 | |
| 20260506085500 | 0 | 141 | 0.0 | 0.0 | 0.00 | 0.97 | 0.09 | 1009.9 | |
| 20260506085000 | 0 | 141 | 0.0 | 0.0 | 0.00 | 0.97 | 0.09 | 1009.9 | |
| 20260506084500 | 0 | 140 | 0.0 | 1.0 | 0.00 | 0.97 | 0.09 | 1009.9 | |
| 20260506084001 | 0 | 140 | 1.0 | 1.0 | 0.00 | 0.97 | 0.09 | 1009.9 | |
| 20260506082501 | 0 | 213 | 0.0 | 3.0 | 0.00 | 0.97 | 0.09 | 1010.0 | |
| 20260506081501 | 0 | 203 | 1.0 | 2.0 | 0.00 | 0.97 | 0.09 | 1010.0 | |
| 20260506081001 | 0 | 158 | 0.0 | 2.0 | 0.00 | 0.97 | 0.09 | 1009.9 | |
| 20260506073502 | 0 | 134 | 0.0 | 1.0 | 0.00 | 1.14 | 0.09 | 1009.4 | |
| 20260506073001 | 0 | 134 | 0.0 | 2.0 | 0.00 | 1.14 | 0.09 | 1009.4 | |
| 20260506072001 | 0 | 134 | 1.0 | 2.0 | 0.00 | 1.14 | 0.09 | 1009.5 | |
| 20260506071500 | 0 | 133 | 0.0 | 1.0 | 0.00 | 1.14 | 0.09 | 1009.8 | |
| 20260506070500 | 0 | 133 | 0.0 | 1.0 | 0.00 | 1.14 | 0.09 | 1009.8 | |
| 20260506062500 | 0 | 20 | 1.0 | 3.0 | 0.03 | 1.30 | 0.09 | 1 | 1009.5 |
| 20260506062002 | 0 | 46 | 1.0 | 2.0 | 0.04 | 1.30 | 0.09 | 1009.6 | |
| 20260506061500 | 0 | 79 | 0.0 | 1.0 | 0.05 | 1.30 | 0.09 | 1009.7 | |
| 20260506061000 | 44 | 79 | 0.0 | 1.0 | 0.05 | 1.30 | 0.09 | 93 | 1009.7 |
| 20260506060500 | 0 | 79 | 0.0 | 2.0 | 0.04 | 1.29 | 0.08 | 1009.8 | |
| 20260506050959 | 0 | 57 | 1.0 | 2.0 | 0.02 | 1.34 | 0.04 | 1011.0 | |
| 20260506050500 | 0 | 40 | 0.0 | 2.0 | 0.03 | 1.34 | 0.04 | 93 | 1011.1 |
| 20260506045003 | 45 | 41 | 1.0 | 4.0 | 0.05 | 1.33 | 0.03 | 94 | 1010.2 |
| 20260506044501 | 0 | 44 | 2.0 | 4.0 | 0.06 | 1.32 | 0.02 | 94 | 1010.1 |
| 20260506044002 | 0 | 47 | 2.0 | 4.0 | 0.07 | 1.32 | 0.02 | 94 | 1010.3 |
| 20260506042503 | 45 | 56 | 2.0 | 4.0 | 0.11 | 1.32 | 0.02 | 1009.9 | |
| 20260506042002 | 0 | 47 | 1.0 | 2.0 | 0.12 | 1.32 | 0.02 | 1 | 1010.0 |
| 20260506041502 | 0 | 71 | 1.0 | 2.0 | 0.13 | 1.32 | 0.02 | 1 | 1009.9 |
| 20260506041003 | 0 | 70 | 1.0 | 2.0 | 0.14 | 1.32 | 0.02 | 1009.9 | |
| 20260506040502 | 0 | 93 | 0.0 | 2.0 | 0.13 | 1.31 | 0.01 | 1010.0 | |
| 20260506040005 | 45 | 129 | 0.0 | 1.0 | 0.13 | 1.30 | 0.00 | 1 | 1010.1 |
| 20260506035004 | 0 | 129 | 0.0 | 2.0 | 0.11 | 1.27 | 1.27 | 1 | 1010.0 |
| 20260506034004 | 46 | 74 | 0.0 | 2.0 | 0.09 | 1.25 | 1.25 | 1010.1 | |
| 20260506033503 | 46 | 46 | 1.0 | 3.0 | 0.07 | 1.23 | 1.23 | 94 | 1010.2 |
| 20260506033002 | 46 | 40 | 1.0 | 4.0 | 0.06 | 1.22 | 1.22 | 94 | 1009.9 |
| 20260506032502 | 46 | 40 | 2.0 | 4.0 | 0.06 | 1.21 | 1.21 | 94 | 1009.9 |
| 20260506032003 | 46 | 45 | 1.0 | 3.0 | 0.07 | 1.20 | 1.20 | 94 | 1009.9 |
| 20260506031502 | 46 | 45 | 1.0 | 5.0 | 0.07 | 1.19 | 1.19 | 94 | 1009.9 |
| 20260506031002 | 0 | 39 | 2.0 | 5.0 | 0.07 | 1.18 | 1.18 | 94 | 1010.0 |
| 20260506030502 | 0 | 44 | 2.0 | 5.0 | 0.09 | 1.18 | 1.18 | 1 | 1009.7 |
| 20260506025502 | 46 | 60 | 1.0 | 6.0 | 0.09 | 1.17 | 1.17 | 1009.6 | |
| 20260506025004 | 0 | 86 | 2.0 | 8.0 | 0.08 | 1.16 | 1.16 | 94 | 1009.5 |
| 20260506024504 | 0 | 77 | 4.0 | 7.0 | 0.09 | 1.16 | 1.16 | 1009.5 | |
| 20260506024002 | 46 | 60 | 1.0 | 5.0 | 0.10 | 1.16 | 1.16 | 1009.5 | |
| 20260506023502 | 0 | 72 | 1.0 | 5.0 | 0.10 | 1.16 | 1.16 | 1009.5 | |
| 20260506023003 | 46 | 51 | 1.0 | 5.0 | 0.11 | 1.16 | 1.16 | 1009.4 | |
| 20260506022503 | 46 | 58 | 2.0 | 3.0 | 0.10 | 1.14 | 1.14 | 1009.7 | |
| 20260506022002 | 0 | 51 | 1.0 | 3.0 | 0.09 | 1.13 | 1.13 | 95 | 1009.9 |
| 20260506021502 | 0 | 32 | 1.0 | 3.0 | 0.09 | 1.12 | 1.12 | 1 | 1009.8 |
| 20260506021003 | 0 | 30 | 2.0 | 3.0 | 0.08 | 1.10 | 1.10 | 1009.7 | |
| 20260506020502 | 46 | 10 | 1.0 | 4.0 | 0.09 | 1.09 | 1.09 | 1 | 1009.7 |
| 20260506020006 | 46 | 52 | 2.0 | 4.0 | 0.10 | 1.09 | 1.09 | 1009.3 | |
| 20260506015503 | 0 | 41 | 1.0 | 4.0 | 0.10 | 1.08 | 1.08 | 1009.0 | |
| 20260506014502 | 0 | 11 | 2.0 | 4.0 | 0.11 | 1.07 | 1.07 | 1009.0 | |
| 20260506014002 | 46 | 30 | 1.0 | 6.0 | 0.11 | 1.06 | 1.06 | 95 | 1008.9 |
| 20260506013502 | 46 | 51 | 3.0 | 6.0 | 0.11 | 1.05 | 1.05 | 95 | 1008.6 |
| 20260506013002 | 0 | 52 | 3.0 | 5.0 | 0.11 | 1.04 | 1.04 | 1008.6 | |
| 20260506012503 | 46 | 46 | 1.0 | 3.0 | 0.11 | 1.04 | 1.04 | 95 | 1008.7 |
| 20260506012002 | 0 | 60 | 2.0 | 4.0 | 0.11 | 1.03 | 1.03 | 1 | 1008.6 |
| 20260506011502 | 46 | 44 | 2.0 | 4.0 | 0.10 | 1.02 | 1.02 | 95 | 1008.5 |
| 20260506011002 | 0 | 61 | 2.0 | 3.0 | 0.09 | 1.01 | 1.01 | 95 | 1008.4 |
| 20260506010503 | 0 | 59 | 1.0 | 3.0 | 0.08 | 1.00 | 1.00 | 1 | 1008.6 |
| 20260506010005 | 0 | 49 | 0.0 | 1.0 | 0.08 | 0.99 | 0.99 | 1008.7 | |
| 20260506005504 | 0 | 44 | 0.0 | 2.0 | 0.07 | 0.97 | 0.97 | 1008.9 | |
| 20260506005003 | 0 | 44 | 0.0 | 2.0 | 0.09 | 0.97 | 0.97 | 1009.0 | |
| 20260506003502 | 0 | 54 | 1.0 | 2.0 | 0.07 | 0.94 | 0.94 | 1009.0 | |
| 20260506003002 | 0 | 70 | 0.0 | 1.0 | 0.07 | 0.93 | 0.93 | 1008.9 | |
| 20260506002503 | 46 | 70 | 0.0 | 2.0 | 0.08 | 0.93 | 0.93 | 1 | 1009.0 |
| 20260506002002 | 0 | 70 | 1.0 | 2.0 | 0.07 | 0.92 | 0.92 | 94 | 1008.9 |
| 20260506001502 | 0 | 68 | 1.0 | 2.0 | 0.08 | 0.92 | 0.92 | 1008.7 | |
| 20260506001004 | 0 | 76 | 1.0 | 3.0 | 0.08 | 0.92 | 0.92 | 94 | 1008.6 |
| 20260506000503 | 0 | 74 | 1.0 | 3.0 | 0.08 | 0.91 | 0.91 | 1 | 1008.6 |
| 20260506000004 | 0 | 127 | 0.0 | 1.0 | 0.08 | 0.91 | 0.91 | 1008.8 | |
| 20260505235501 | 46 | 135 | 0.0 | 1.0 | 0.06 | 0.89 | 0.89 | 1009.0 | |
| 20260505235003 | 0 | 45 | 0.0 | 2.0 | 0.06 | 0.88 | 0.88 | 1008.9 | |
| 20260505234501 | 0 | 44 | 0.0 | 3.0 | 0.06 | 0.88 | 0.88 | 1008.7 | |
| 20260505234002 | 0 | 62 | 2.0 | 3.0 | 0.06 | 0.87 | 0.87 | 1008.6 | |
| 20260505233501 | 46 | 34 | 2.0 | 3.0 | 0.06 | 0.87 | 0.87 | 1 | 1008.6 |
| 20260505233002 | 0 | 23 | 1.0 | 5.0 | 0.06 | 0.86 | 0.86 | 1008.6 | |
| 20260505232501 | 0 | 49 | 3.0 | 4.0 | 0.05 | 0.85 | 0.85 | 1008.5 | |
| 20260505231003 | 46 | 11 | 2.0 | 4.0 | 0.05 | 0.84 | 0.84 | 1009.0 | |
| 20260505225502 | 0 | 21 | 1.0 | 3.0 | 0.05 | 0.82 | 0.82 | 1009.2 | |
| 20260505225004 | 0 | 36 | 1.0 | 3.0 | 0.05 | 0.82 | 0.82 | 1009.3 | |
| 20260505224501 | 0 | 354 | 1.0 | 5.0 | 0.06 | 0.82 | 0.82 | 1009.2 | |
| 20260505224001 | 0 | 24 | 2.0 | 5.0 | 0.05 | 0.81 | 0.81 | 1009.2 | |
| 20260505223501 | 0 | 45 | 3.0 | 5.0 | 0.06 | 0.81 | 0.81 | 1009.2 | |
| 20260505223002 | 0 | 60 | 2.0 | 6.0 | 0.05 | 0.80 | 0.80 | 1009.3 | |
| 20260505222503 | 0 | 28 | 2.0 | 6.0 | 0.06 | 0.80 | 0.80 | 1009.4 | |
| 20260505222001 | 0 | 37 | 2.0 | 6.0 | 0.06 | 0.80 | 0.80 | 1009.3 | |
| 20260505221500 | 0 | 333 | 1.0 | 5.0 | 0.05 | 0.79 | 0.79 | 1009.5 | |
| 20260505221002 | 0 | 336 | 3.0 | 7.0 | 0.05 | 0.79 | 0.79 | 1009.3 | |
| 20260505220502 | 0 | 44 | 3.0 | 9.0 | 0.04 | 0.78 | 0.78 | 1009.3 | |
| 20260505220004 | 0 | 36 | 4.0 | 11.0 | 0.04 | 0.78 | 0.78 | 1009.3 | |
| 20260505215501 | 0 | 49 | 6.0 | 11.0 | 0.03 | 0.77 | 0.77 | 1009.3 | |
| 20260505215001 | 0 | 54 | 6.0 | 10.0 | 0.03 | 0.77 | 0.77 | 1009.3 | |
| 20260505214501 | 0 | 15 | 6.0 | 10.0 | 0.02 | 0.76 | 0.76 | 1009.3 | |
| 20260505214002 | 0 | 13 | 6.0 | 10.0 | 0.02 | 0.76 | 0.76 | 1009.3 | |
| 20260505213501 | 0 | 15 | 7.0 | 10.0 | 0.02 | 0.75 | 0.75 | 1009.3 | |
| 20260505212501 | 0 | 34 | 5.0 | 13.0 | 0.01 | 0.74 | 0.74 | 1009.3 | |
| 20260505212003 | 0 | 18 | 6.0 | 13.0 | 0.01 | 0.74 | 0.74 | 1009.2 | |
| 20260505211501 | 47 | 352 | 5.0 | 9.0 | 0.01 | 0.74 | 0.74 | 93 | 1009.2 |
| 20260505211001 | 0 | 360 | 4.0 | 7.0 | 0.01 | 0.74 | 0.74 | 1009.1 | |
| 20260505210503 | 0 | 340 | 3.0 | 7.0 | 0.01 | 0.74 | 0.74 | 1009.0 | |
| 20260505205502 | 0 | 28 | 5.0 | 10.0 | 0.02 | 0.74 | 0.74 | 1009.0 | |
| 20260505204002 | 0 | 38 | 5.0 | 9.0 | 0.02 | 0.74 | 0.74 | 1009.2 | |
| 20260505203501 | 0 | 4 | 5.0 | 10.0 | 0.01 | 0.73 | 0.73 | 1009.2 | |
| 20260505203001 | 0 | 360 | 5.0 | 9.0 | 0.01 | 0.73 | 0.73 | 1009.0 | |
| 20260505202502 | 0 | 336 | 3.0 | 7.0 | 0.01 | 0.73 | 0.73 | 1009.0 | |
| 20260505202002 | 0 | 309 | 4.0 | 7.0 | 0.01 | 0.73 | 0.73 | 1008.9 | |
| 20260505201501 | 0 | 338 | 4.0 | 7.0 | 0.02 | 0.73 | 0.73 | 1008.9 | |
| 20260505201002 | 0 | 328 | 2.0 | 9.0 | 0.02 | 0.73 | 0.73 | 1008.8 | |
| 20260505200501 | 0 | 345 | 5.0 | 10.0 | 0.02 | 0.73 | 0.73 | 1008.6 | |
| 20260505200004 | 0 | 14 | 5.0 | 10.0 | 0.01 | 0.72 | 0.72 | 1008.6 | |
| 20260505195501 | 0 | 341 | 4.0 | 7.0 | 0.02 | 0.72 | 0.72 | 1008.6 | |
| 20260505194002 | 0 | 14 | 4.0 | 7.0 | 0.02 | 0.72 | 0.72 | 1008.4 | |
| 20260505193501 | 0 | 5 | 5.0 | 8.0 | 0.02 | 0.72 | 0.72 | 1008.3 | |
| 20260505193001 | 0 | 34 | 4.0 | 8.0 | 0.03 | 0.72 | 0.72 | 1008.3 | |
| 20260505192501 | 0 | 345 | 4.0 | 8.0 | 0.03 | 0.72 | 0.72 | 1008.4 | |
| 20260505192002 | 0 | 15 | 5.0 | 8.0 | 0.04 | 0.72 | 0.72 | 1008.4 | |
| 20260505191001 | 0 | 57 | 3.0 | 7.0 | 0.04 | 0.71 | 0.71 | 1008.3 | |
| 20260505190501 | 0 | 39 | 4.0 | 8.0 | 0.05 | 0.71 | 0.71 | 1008.2 | |
| 20260505190006 | 0 | 49 | 5.0 | 8.0 | 0.06 | 0.71 | 0.71 | 1008.0 | |
| 20260505185501 | 0 | 11 | 4.0 | 6.0 | 0.06 | 0.70 | 0.70 | 1008.1 | |
| 20260505185001 | 0 | 42 | 2.0 | 5.0 | 0.07 | 0.70 | 0.70 | 1008.2 | |
| 20260505184502 | 0 | 51 | 3.0 | 4.0 | 0.08 | 0.70 | 0.70 | 1008.3 | |
| 20260505184002 | 0 | 79 | 3.0 | 4.0 | 0.09 | 0.70 | 0.70 | 1008.3 | |
| 20260505183501 | 0 | 51 | 2.0 | 4.0 | 0.10 | 0.70 | 0.70 | 1008.4 | |
| 20260505183001 | 0 | 62 | 1.0 | 5.0 | 0.10 | 0.69 | 0.69 | 1008.5 | |
| 20260505182004 | 0 | 73 | 2.0 | 4.0 | 0.11 | 0.68 | 0.68 | 1008.8 | |
| 20260505181501 | 0 | 60 | 2.0 | 4.0 | 0.11 | 0.67 | 0.67 | 1008.9 | |
| 20260505181001 | 0 | 41 | 3.0 | 4.0 | 0.10 | 0.66 | 0.66 | 1008.9 | |
| 20260505180501 | 0 | 46 | 2.0 | 3.0 | 0.11 | 0.66 | 0.66 | 1008.8 | |
| 20260505180004 | 0 | 48 | 2.0 | 3.0 | 0.11 | 0.65 | 0.65 | 1008.8 | |
| 20260505175001 | 0 | 38 | 1.0 | 2.0 | 0.09 | 0.63 | 0.63 | 1008.9 | |
| 20260505174501 | 0 | 80 | 1.0 | 2.0 | 0.09 | 0.62 | 0.62 | 1009.0 | |
| 20260505173501 | 0 | 41 | 1.0 | 4.0 | 0.07 | 0.60 | 0.60 | 89 | 1009.1 |
| 20260505173003 | 49 | 41 | 1.0 | 4.0 | 0.06 | 0.59 | 0.59 | 89 | 1009.1 |
| 20260505172501 | 49 | 67 | 1.0 | 2.0 | 0.06 | 0.58 | 0.58 | 88 | 1009.2 |
| 20260505172002 | 0 | 68 | 1.0 | 3.0 | 0.05 | 0.57 | 0.57 | 1 | 1009.1 |
| 20260505171501 | 0 | 47 | 2.0 | 3.0 | 0.04 | 0.56 | 0.56 | 87 | 1008.9 |
| 20260505171002 | 50 | 38 | 0.0 | 1.0 | 0.03 | 0.55 | 0.55 | 1009.1 | |
| 20260505170502 | 0 | 37 | 0.0 | 4.0 | 0.03 | 0.55 | 0.55 | 87 | 1009.2 |
| 20260505170005 | 50 | 38 | 2.0 | 5.0 | 0.03 | 0.54 | 0.54 | 87 | 1009.0 |
| 20260505165502 | 50 | 46 | 3.0 | 5.0 | 0.03 | 0.54 | 0.54 | 86 | 1008.7 |
| 20260505165000 | 50 | 30 | 2.0 | 7.0 | 0.03 | 0.54 | 0.54 | 85 | 1009.1 |
| 20260505164501 | 50 | 352 | 5.0 | 7.0 | 0.02 | 0.53 | 0.53 | 85 | 1008.8 |
| 20260505164002 | 50 | 44 | 3.0 | 5.0 | 0.02 | 0.53 | 0.53 | 84 | 1009.0 |